Voltar ao catálogo

ONEWEB-0215

AtivoComunicaçõesPO
NORAD 48800·PAYLOAD·🇬🇧 United Kingdom

Lançado May 28, 2021 de Vostochny Cosmodrome

Loading…

Próximas Passagens (próximas 24 horas)

TLE

AtualizadoSource: CelesTrak SupGP

Época: Sep 15, 2026, 00:15 UTC

1 48800C 21045AK  26258.01055972 -.00002687  00000+0 -71468-2 0  2584
2 48800  87.8997 241.2775 0002200  67.2264 322.5605 13.15555791    15

Acompanhe ONEWEB-0215 em tempo real com AllMySat

Download on the App Store